Location: Exeidioux
(45.6312°N, 1.6819°E)
Time: 19:38:02
(UTC+00:00)

Cosmos 2084 Rocket - Pass Details

Date: 03 March 2021
Orbit: 528 x 653 km, 62.8° (Epoch: 12 April)

Event Time Altitude Azimuth Distance (km) Brightness Sun altitude
Rises 18:23:16 0° 322° (NW) 2,799 7.5 -7.8°
Reaches altitude 10° 18:25:30 10° 327° (NNW) 1,918 6.5 -8.2°
Maximum altitude 18:29:48 60° 47° (NE) 697 3.6 -9.0°
Drops below altitude 10° 18:34:14 10° 128° (SE) 1,984 5.7 -9.7°
Enters shadow 18:35:01 - 130° (SE) 2,289 6.0 -9.9°
